SCP
0 0 0 0 0 0 0 0 0 0 0 0 0 0 0 0 0 0 0 0 0 0 0 0 0 0 0 0 0 0 0 0 0 0 0 0 0 0 0 0 0 0 0
0 0 0 0 0 0 0 0 0 0 0 0 0 0 0 0 0 0 0 0 0 0 0 0 0 0 0 0 0 0 0 0 0 0 0 0 0 0 0 0 0 0 0
0 0 0 0 0 0 0 0 0 0 0 0 0 0 0 0 0 0 0 0 0 0 0 0 0 0 0 1 1 1 1 1 1 0 0 0 0 0 0 0 0 0 0
0 0 0 0 0 0 0 0 0 0 0 0 0 0 0 0 0 0 0 0 0 0 0 0 0 0 0 0 1 1 1 1 1 1 1 0 0 0 0 0 0 0 0
0 0 0 0 0 0 0 0 0 0 0 0 0 0 0 0 0 0 0 0 0 0 0 0 0 0 0 0 1 1 1 1 1 1 1 1 0 0 0 0 0 0 0
0 0 0 0 0 0 0 0 0 0 0 0 0 0 0 0 0 0 0 0 0 0 0 0 0 0 0 0 0 1 1 1 1 1 1 1 1 0 0 0 0 0 0
0 0 0 0 0 0 0 0 0 0 0 0 0 0 0 0 0 0 0 0 0 0 0 0 0 0 0 0 0 0 1 1 1 1 1 1 1 1 1 0 0 0 0
0 0 0 0 0 0 0 0 0 0 0 0 0 0 0 0 0 0 0 0 0 0 0 0 0 0 0 0 0 0 1 1 1 1 1 1 1 1 1 1 0 0 0
0 0 0 0 0 0 0 0 0 0 0 0 0 0 0 0 0 0 0 0 0 0 0 0 0 0 0 0 0 0 0 1 1 1 1 1 1 1 1 1 1 0 0
0 0 0 0 0 0 0 0 0 0 0 0 0 0 0 0 0 0 0 0 0 0 0 0 0 0 0 0 0 0 0 0 0 1 1 1 1 1 1 1 1 0 0
0 0 0 0 0 0 0 0 0 0 0 0 0 0 0 0 0 0 0 0 0 0 0 0 0 0 0 0 0 0 0 0 0 0 1 1 1 1 1 1 1 0 0
0 0 0 0 0 0 0 0 0 0 0 0 0 0 0 0 0 0 0 0 0 0 0 0 0 0 0 0 0 0 0 0 0 0 0 0 1 1 1 1 1 1 0
0 0 0 0 0 0 0 0 0 0 0 0 0 0 0 0 0 0 0 0 0 0 0 0 0 0 0 0 0 0 0 0 0 0 0 0 0 1 1 1 1 1 1
0 0 0 0 0 0 0 0 0 0 0 0 0 0 0 0 0 0 0 0 0 0 0 0 0 0 0 0 0 0 0 0 0 0 0 0 0 0 0 0 0 1 1
0 0 0 0 0 0 0 0 0 0 0 0 0 0 0 0 0 0 0 0 0 0 0 0 0 0 0 0 0 0 0 0 0 0 0 0 0 0 0 0 0 0 0
0 0 0 0 0 0 0 0 0 0 0 0 0 0 0 0 0 0 0 0 0 0 0 0 0 0 0 0 0 0 0 0 0 0 0 0 0 0 0 0 0 0 0
0 0 0 0 0 0 0 0 0 0 0 0 0 0 0 0 0 0 0 0 0 0 0 0 0 0 0 0 0 0 0 0 0 0 0 0 0 0 0 0 0 0 0
0 0 0 0 0 0 0 0 0 0 0 0 0 0 0 0 0 0 0 0 0 0 0 0 0 0 0 0 0 0 0 0 0 0 0 0 0 0 0 0 0 0 0
0 0 0 0 0 0 0 0 0 0 0 0 0 0 0 0 0 0 0 0 0 0 0 0 0 0 0 0 0 0 0 0 0 0 0 0 0 0 0 0 0 0 0
0 0 0 0 0 0 0 0 0 0 0 0 0 0 0 0 0 0 0 0 0 0 0 0 0 0 0 0 0 0 0 0 0 0 0 0 0 0 0 0 0 0 0
0 0 0 0 0 0 0 0 0 0 0 0 0 0 0 0 0 0 0 0 0 0 0 0 0 0 0 0 0 0 0 0 0 0 0 0 0 0 0 0 0 0 0
0 0 0 0 0 0 0 0 0 0 0 0 0 0 0 0 0 0 0 0 0 0 0 0 0 0 0 0 0 0 0 0 0 0 0 0 0 0 0 0 0 0 0
0 0 0 0 0 0 0 0 0 0 0 0 0 0 0 0 0 0 0 0 0 0 0 0 0 0 0 0 0 0 0 0 0 0 0 0 0 0 0 0 0 0 0
0 0 0 0 0 0 0 0 0 0 0 0 0 0 0 0 0 0 0 0 0 0 0 0 0 0 0 0 0 0 0 0 0 0 0 0 0 0 0 0 0 0 0
0 0 0 0 0 0 0 0 0 0 0 0 0 0 0 0 0 0 0 0 0 0 0 0 0 0 0 0 0 0 0 0 0 0 0 0 0 0 0 0 0 0 0
0 0 0 0 0 0 0 0 0 0 0 0 0 0 0 0 0 0 0 0 0 0 0 0 0 0 0 0 0 0 0 0 0 0 0 0 0 0 0 0 0 0 0
Wind_Speed
2 2 2 1 2 2 2 2 2 2 2 2 2 3 3 3 2 2 2 10 14 15 17 18 18 18 18 17 17 17 17 17 16 14 14 14 14 14 14 14 13 12 11
3 2 2 1 1 1 2 2 2 2 1 1 2 2 2 2 3 3 4 7 14 16 17 18 19 19 19 19 19 18 18 18 16 16 15 15 14 14 14 14 14 13 12
3 2 2 1 1 1 1 1 1 1 1 1 2 3 3 3 3 4 5 5 6 13 17 17 18 18 18 19 20 19 18 18 17 17 17 16 15 15 14 14 14 14 13
4 3 1 0 0 1 1 1 1 1 0 1 2 3 2 2 4 4 4 5 5 6 11 17 17 17 19 20 20 20 19 19 18 18 18 18 17 16 16 15 15 14 14
4 3 1 1 1 1 1 1 1 1 1 1 2 2 2 3 3 4 5 6 7 6 5 10 16 17 19 20 21 21 21 20 20 20 20 20 19 18 17 16 16 15 15
3 3 2 1 1 1 1 0 0 0 1 1 2 3 3 3 3 3 4 4 5 7 7 7 7 11 18 18 19 20 21 22 21 21 22 21 21 19 18 18 17 17 16
3 3 2 1 1 1 0 0 1 0 1 1 1 3 4 3 2 2 2 2 3 5 5 6 5 5 6 16 18 19 21 22 22 22 22 22 22 21 20 19 19 18 17
3 3 3 2 1 1 1 1 1 1 1 1 1 1 3 5 4 2 1 1 2 2 3 6 6 6 6 4 9 17 19 20 21 22 23 23 22 21 21 21 20 19 18
2 2 3 2 2 2 1 1 1 2 0 1 1 2 1 2 4 4 3 2 2 1 3 3 4 5 6 5 5 11 17 18 20 22 22 23 22 22 22 22 21 21 20
1 2 2 2 2 2 2 1 2 1 2 0 1 0 2 3 1 3 4 3 3 3 3 3 2 4 4 4 6 10 14 16 18 20 21 22 23 23 22 23 23 23 22
2 1 2 2 2 2 1 1 1 1 1 2 1 1 0 0 1 2 3 4 4 3 3 3 2 3 3 4 4 8 12 14 15 17 18 19 21 23 24 24 25 25 24
2 2 2 2 2 1 1 1 0 0 0 1 1 1 1 1 1 1 2 3 4 4 3 3 2 2 3 3 6 8 10 12 12 14 16 17 18 21 23 25 26 26 25
1 1 1 1 1 1 1 0 0 1 1 1 2 2 2 2 2 2 2 2 3 3 3 3 2 2 3 2 4 7 7 9 11 12 13 15 16 18 20 22 24 25 25
1 1 1 1 0 1 1 1 1 1 1 1 2 2 2 2 2 3 3 2 2 3 3 4 3 3 2 2 5 6 5 8 9 10 11 13 14 15 17 18 19 21 22
2 2 1 1 1 1 1 1 1 2 2 2 3 3 3 3 2 3 3 3 3 3 4 4 3 3 3 3 5 4 4 7 9 9 10 12 13 14 15 16 18 19 19
2 2 1 1 2 2 2 2 2 3 3 3 3 3 3 3 3 3 3 3 3 4 4 4 4 4 4 4 5 4 5 9 9 9 10 12 13 13 14 15 17 18 19
3 3 3 3 3 3 3 3 3 4 4 4 4 4 5 4 3 3 3 3 3 3 4 4 3 3 4 5 5 4 4 4 5 10 11 12 13 13 14 15 16 17 19
4 4 4 4 4 4 4 4 5 4 4 5 5 5 5 4 4 4 3 4 4 4 4 5 4 3 4 5 5 5 4 4 4 8 10 11 12 13 13 13 14 16 17
5 4 4 5 5 5 5 5 5 5 5 6 6 6 6 5 5 4 4 4 4 4 4 4 4 3 3 3 3 4 4 4 4 6 8 9 11 11 12 13 14 15 16
5 5 5 6 6 6 5 5 5 5 5 6 5 5 6 6 6 6 5 5 5 4 4 3 4 3 3 4 2 3 4 3 3 3 4 5 6 9 10 12 13 14 15
6 6 5 5 5 5 6 6 5 6 6 6 5 5 6 8 10 8 6 5 5 4 4 4 4 3 3 3 3 3 3 3 4 3 2 3 3 3 4 7 11 13 14
5 5 5 5 6 5 7 9 7 5 5 6 6 6 7 8 10 11 12 11 9 7 6 5 4 5 6 5 3 3 2 2 3 2 1 3 2 3 3 3 7 10 13
5 5 6 6 6 8 11 11 11 7 6 6 7 6 6 7 8 6 8 11 10 12 13 8 7 8 7 6 5 4 4 4 5 3 1 3 2 3 3 4 7 9 11
5 5 6 6 6 8 11 12 13 8 6 7 8 8 8 8 8 8 7 7 7 8 9 8 8 9 9 7 6 6 6 5 4 3 3 3 2 3 2 2 5 7 9
5 5 5 6 7 9 12 13 11 5 6 8 8 8 8 8 11 12 8 8 8 8 10 13 12 12 13 12 8 3 3 3 4 4 3 3 2 2 2 2 3 4 6
6 6 6 7 7 8 11 13 11 5 6 7 6 7 10 10 11 10 6 7 8 9 7 6 6 8 8 9 11 8 6 5 4 4 4 4 3 2 2 2 1 1 2
Wind_Direction
141 149 156 159 175 183 176 180 204 216 212 215 232 237 239 223 208 224 218 205 204 203 201 202 204 202 199 198 197 195 194 193 190 187 186 185 184 183 181 179 177 174 172
136 140 141 156 177 183 177 176 190 200 202 211 257 260 258 234 212 208 216 215 213 211 213 209 208 207 204 203 203 201 200 198 195 193 191 190 189 188 188 186 184 182 179
139 135 135 138 201 189 158 148 182 146 187 231 260 260 248 247 223 208 208 214 222 223 223 218 214 211 210 209 209 207 205 202 200 198 196 194 193 192 193 192 190 187 185
138 130 131 175 237 121 119 130 133 122 223 249 261 263 253 243 241 224 211 213 218 224 227 223 220 218 215 215 214 213 210 207 204 202 201 199 198 196 196 196 195 193 191
136 133 142 174 122 110 121 149 131 155 229 280 272 264 262 251 248 241 222 219 216 218 218 227 226 225 223 222 220 218 215 212 209 206 206 205 203 201 199 199 199 197 196
139 135 142 130 94 88 74 85 135 198 209 264 297 309 288 269 260 248 237 230 222 221 220 225 226 230 228 227 226 224 220 216 213 211 210 209 208 205 203 202 202 201 200
138 134 121 99 96 103 125 161 134 40 319 0 23 333 319 305 289 267 250 232 234 232 225 224 222 221 229 229 228 228 226 222 218 215 213 212 211 208 205 205 205 204 204
145 144 140 136 124 108 70 58 97 97 335 61 114 42 342 336 330 312 300 236 253 251 240 234 226 221 224 221 227 228 228 228 226 221 217 214 212 210 208 207 207 207 207
149 144 154 150 144 130 124 102 117 128 162 331 123 137 137 270 308 317 330 337 330 296 270 258 234 228 223 221 229 233 231 231 232 229 224 219 215 211 208 209 209 209 209
82 142 147 142 137 127 125 124 115 128 137 276 323 173 184 186 217 308 319 327 333 317 296 286 265 241 227 215 226 230 234 234 233 233 229 223 218 213 211 211 212 211 211
18 72 114 112 113 114 116 93 74 86 149 178 211 253 293 246 176 194 294 316 326 311 304 289 285 269 248 225 230 236 235 235 234 234 232 228 222 217 215 215 216 216 215
18 44 96 101 107 111 114 106 75 18 212 205 203 195 186 204 232 205 253 290 299 296 299 293 286 281 270 242 240 242 238 233 233 233 234 233 228 223 220 219 219 219 218
33 17 83 100 124 179 187 149 122 284 268 253 242 232 216 216 206 195 211 265 287 294 305 303 284 291 286 273 261 253 250 236 233 233 233 235 234 229 224 222 222 222 220
183 174 128 129 215 241 242 201 230 255 250 257 263 253 243 244 217 199 197 212 289 301 302 289 297 280 281 276 264 258 259 246 239 235 234 236 237 234 227 224 224 223 221
188 170 158 171 251 255 253 235 242 258 263 259 261 260 249 251 241 228 209 190 197 260 282 278 286 291 288 278 269 264 259 253 247 244 239 238 237 235 230 225 222 221 219
196 192 219 237 256 263 259 244 248 253 255 262 256 260 261 256 257 249 234 218 196 203 247 261 259 273 289 293 282 270 262 263 257 251 246 243 239 235 231 227 222 220 218
200 205 218 231 248 256 255 243 249 253 250 261 265 256 257 254 254 257 248 238 227 202 239 267 259 271 277 283 291 283 271 261 261 255 248 244 241 236 232 229 225 221 219
213 217 222 230 243 247 245 240 252 255 245 250 255 255 258 259 254 252 247 245 242 225 222 258 273 273 267 269 270 276 273 265 254 259 254 248 244 240 236 232 227 223 220
219 225 223 229 238 242 241 240 240 247 245 245 245 244 251 253 257 255 250 248 248 251 225 233 259 262 270 275 284 283 277 269 260 256 256 253 249 243 238 235 230 226 222
219 227 230 233 237 238 239 243 242 244 247 250 248 245 246 241 245 250 253 248 246 251 245 240 251 261 266 275 270 276 292 284 274 270 260 256 251 249 244 238 232 228 223
224 226 231 240 242 240 239 235 236 240 240 248 254 252 251 251 249 246 250 242 238 237 238 239 249 258 264 271 261 254 265 286 283 254 262 264 252 250 246 241 236 231 224
231 228 231 238 244 244 245 241 228 231 233 239 250 256 261 263 262 262 262 255 236 229 229 229 236 237 247 244 245 244 249 275 285 268 236 269 241 254 251 238 236 232 225
226 230 237 239 244 250 253 251 244 230 231 236 239 247 260 262 262 260 267 271 262 249 232 220 226 234 237 233 230 245 239 232 239 252 239 266 250 255 260 250 241 234 227
225 233 239 241 245 253 254 252 249 237 232 237 237 237 243 257 261 254 257 263 259 256 245 231 225 233 235 231 221 229 235 243 255 252 206 243 249 250 266 263 249 237 228
235 237 239 241 245 256 257 255 248 229 236 244 244 242 239 247 257 257 251 255 262 265 260 246 234 237 240 240 227 220 228 228 255 258 210 213 233 242 257 260 259 240 226
238 243 248 245 242 251 258 256 245 220 237 249 252 249 245 247 255 256 239 240 253 259 260 265 255 254 251 251 240 218 212 216 226 250 224 198 208 195 249 254 240 227 218